| time (UTC) | temp F | wind direction | speed MPH | gust MPH | rain 1hr in | rain 24hr in | rain mn in | humidity % | barometer mb |
| 20260901004530 | 94 | 129 | 22.0 | 30.0 | 0.00 | 0.00 | 0.00 | 32 | 996.8 |
| 20260901003029 | 95 | 138 | 20.0 | 26.0 | 0.00 | 0.00 | 0.00 | 31 | 996.4 |
| 20260901001533 | 95 | 139 | 24.0 | 32.0 | 0.00 | 0.00 | 0.00 | 31 | 996.3 |
| 20260901000029 | 95 | 139 | 17.0 | 26.0 | 0.00 | 0.00 | 0.00 | 30 | 996.5 |
| 20260831234539 | 97 | 147 | 16.0 | 26.0 | 0.00 | 0.00 | 0.00 | 26 | 996.5 |
| 20260831233021 | 96 | 137 | 10.0 | 20.0 | 0.00 | 0.00 | 0.00 | 27 | 996.5 |
| 20260831231529 | 96 | 124 | 15.0 | 23.0 | 0.00 | 0.00 | 0.00 | 26 | 996.6 |
| 20260831230029 | 96 | 90 | 11.0 | 20.0 | 0.00 | 0.00 | 0.00 | 27 | 996.6 |
| 20260831224528 | 97 | 140 | 15.0 | 25.0 | 0.00 | 0.00 | 0.00 | 26 | 996.5 |
| 20260831223024 | 96 | 49 | 15.0 | 22.0 | 0.00 | 0.00 | 0.00 | 27 | 996.6 |
| 20260831221536 | 96 | 138 | 18.0 | 24.0 | 0.00 | 0.00 | 0.00 | 26 | 996.8 |
| 20260831220027 | 97 | 92 | 12.0 | 23.0 | 0.00 | 0.00 | 0.00 | 26 | 997.0 |
| 20260831214540 | 97 | 85 | 10.0 | 17.0 | 0.00 | 0.00 | 0.00 | 25 | 997.3 |
| 20260831213030 | 97 | 88 | 13.0 | 18.0 | 0.00 | 0.00 | 0.00 | 26 | 997.5 |
| 20260831211515 | 97 | 178 | 1.0 | 6.0 | 0.00 | 0.00 | 0.00 | 25 | 997.9 |
| 20260831210008 | 95 | 111 | 6.0 | 18.0 | 0.00 | 0.00 | 0.00 | 27 | 998.3 |
| 20260831204506 | 96 | 165 | 3.0 | 14.0 | 0.00 | 0.00 | 0.00 | 28 | 998.4 |
| 20260831203006 | 96 | 90 | 8.0 | 15.0 | 0.00 | 0.00 | 0.00 | 28 | 998.6 |
| 20260831201518 | 95 | 350 | 7.0 | 12.0 | 0.00 | 0.00 | 0.00 | 27 | 999.0 |
| 20260831200019 | 95 | 65 | 4.0 | 10.0 | 0.00 | 0.00 | 0.00 | 28 | 999.2 |
| 20260831194518 | 94 | 182 | 6.0 | 13.0 | 0.00 | 0.00 | 0.00 | 29 | 999.3 |
| 20260831193013 | 95 | 167 | 7.0 | 16.0 | 0.00 | 0.00 | 0.00 | 29 | 999.5 |
| 20260831191508 | 94 | 259 | 5.0 | 11.0 | 0.00 | 0.00 | 0.00 | 30 | 999.7 |
| 20260831190008 | 93 | 289 | 3.0 | 11.0 | 0.00 | 0.00 | 0.00 | 31 | 999.8 |
| 20260831184506 | 93 | 244 | 10.0 | 12.0 | 0.00 | 0.00 | 0.00 | 31 | 1000.0 |
| 20260831183004 | 94 | 275 | 4.0 | 8.0 | 0.00 | 0.00 | 0.00 | 30 | 1000.2 |
| 20260831181601 | 93 | 86 | 6.0 | 10.0 | 0.00 | 0.00 | 0.00 | 32 | 1000.4 |
| 20260831180054 | 92 | 15 | 4.0 | 8.0 | 0.00 | 0.00 | 0.00 | 33 | 1000.6 |
| 20260831174553 | 91 | 221 | 5.0 | 12.0 | 0.00 | 0.00 | 0.00 | 34 | 1000.6 |
| 20260831173049 | 91 | 162 | 4.0 | 13.0 | 0.00 | 0.00 | 0.00 | 35 | 1000.7 |
| 20260831171558 | 89 | 51 | 2.0 | 16.0 | 0.00 | 0.00 | 0.00 | 37 | 1000.9 |
| 20260831170054 | 90 | 121 | 6.0 | 10.0 | 0.00 | 0.00 | 0.00 | 37 | 1001.0 |
| 20260831164552 | 89 | 137 | 2.0 | 10.0 | 0.00 | 0.00 | 0.00 | 39 | 1001.2 |
| 20260831163048 | 87 | 51 | 3.0 | 9.0 | 0.00 | 0.00 | 0.00 | 41 | 1001.2 |
| 20260831161537 | 86 | 144 | 5.0 | 10.0 | 0.00 | 0.00 | 0.00 | 44 | 1001.2 |
| 20260831160042 | 85 | 142 | 4.0 | 10.0 | 0.00 | 0.00 | 0.00 | 45 | 1001.1 |
| 20260831154529 | 84 | 107 | 5.0 | 10.0 | 0.00 | 0.00 | 0.00 | 47 | 1001.0 |
| 20260831153048 | 83 | 146 | 5.0 | 10.0 | 0.00 | 0.00 | 0.00 | 49 | 1000.9 |
| 20260831151534 | 82 | 142 | 7.0 | 11.0 | 0.00 | 0.00 | 0.00 | 51 | 1000.8 |
| 20260831150033 | 81 | 196 | 5.0 | 11.0 | 0.00 | 0.00 | 0.00 | 52 | 1000.8 |
| 20260831144523 | 80 | 165 | 8.0 | 12.0 | 0.00 | 0.00 | 0.00 | 54 | 1000.8 |
| 20260831143035 | 78 | 138 | 11.0 | 16.0 | 0.00 | 0.00 | 0.00 | 56 | 1000.8 |
| 20260831141525 | 78 | 138 | 12.0 | 17.0 | 0.00 | 0.00 | 0.00 | 56 | 1000.8 |
| 20260831140043 | 77 | 140 | 12.0 | 17.0 | 0.00 | 0.00 | 0.00 | 58 | 1000.6 |
| 20260831134518 | 77 | 134 | 13.0 | 20.0 | 0.00 | 0.00 | 0.00 | 59 | 1000.4 |
| 20260831133029 | 76 | 141 | 9.0 | 12.0 | 0.00 | 0.00 | 0.00 | 59 | 1000.3 |
| 20260831131516 | 76 | 134 | 9.0 | 14.0 | 0.00 | 0.00 | 0.00 | 59 | 1000.2 |
| 20260831130019 | 76 | 138 | 7.0 | 9.0 | 0.00 | 0.00 | 0.00 | 59 | 1000.2 |
| 20260831124529 | 76 | 178 | 4.0 | 7.0 | 0.00 | 0.00 | 0.00 | 59 | 1000.2 |
| 20260831123010 | 76 | 155 | 4.0 | 10.0 | 0.00 | 0.00 | 0.00 | 59 | 999.9 |
| 20260831121520 | 76 | 142 | 8.0 | 16.0 | 0.00 | 0.00 | 0.00 | 58 | 999.7 |
| 20260831120017 | 76 | 148 | 14.0 | 19.0 | 0.00 | 0.00 | 0.00 | 57 | 999.4 |
| 20260831114504 | 77 | 147 | 14.0 | 22.0 | 0.00 | 0.00 | 0.00 | 57 | 999.4 |
| 20260831113004 | 77 | 142 | 16.0 | 22.0 | 0.00 | 0.00 | 0.00 | 56 | 999.2 |
| 20260831111501 | 77 | 137 | 16.0 | 20.0 | 0.00 | 0.00 | 0.00 | 55 | 999.1 |
| 20260831110100 | 78 | 146 | 16.0 | 22.0 | 0.00 | 0.00 | 0.00 | 55 | 999.1 |
| 20260831104557 | 78 | 140 | 17.0 | 23.0 | 0.00 | 0.00 | 0.00 | 54 | 999.1 |
| 20260831103056 | 78 | 141 | 18.0 | 24.0 | 0.00 | 0.00 | 0.00 | 53 | 999.1 |
| 20260831101604 | 78 | 142 | 18.0 | 24.0 | 0.00 | 0.00 | 0.00 | 53 | 999.0 |
| 20260831100053 | 79 | 142 | 19.0 | 23.0 | 0.00 | 0.00 | 0.00 | 52 | 998.9 |
| 20260831094604 | 79 | 144 | 17.0 | 20.0 | 0.00 | 0.00 | 0.00 | 52 | 998.8 |
| 20260831093050 | 79 | 139 | 16.0 | 22.0 | 0.00 | 0.00 | 0.00 | 52 | 998.9 |
| 20260831091547 | 79 | 137 | 16.0 | 21.0 | 0.00 | 0.00 | 0.00 | 51 | 999.0 |
| 20260831090045 | 80 | 146 | 16.0 | 22.0 | 0.00 | 0.00 | 0.00 | 51 | 999.0 |
| 20260831080038 | 81 | 141 | 19.0 | 23.0 | 0.00 | 0.00 | 0.00 | 50 | 998.9 |
| 20260831074540 | 81 | 141 | 17.0 | 22.0 | 0.00 | 0.00 | 0.00 | 49 | 999.1 |
| 20260831073040 | 82 | 136 | 18.0 | 24.0 | 0.00 | 0.00 | 0.00 | 49 | 999.0 |
| 20260831071539 | 82 | 138 | 20.0 | 26.0 | 0.00 | 0.00 | 0.00 | 49 | 999.2 |
| 20260831070105 | 83 | 142 | 20.0 | 25.0 | 0.00 | 0.00 | 0.00 | 48 | 999.2 |
| 20260831064537 | 83 | 149 | 20.0 | 29.0 | 0.00 | 0.00 | 0.00 | 47 | 999.3 |
| 20260831063036 | 84 | 146 | 22.0 | 27.0 | 0.00 | 0.00 | 0.00 | 47 | 999.2 |
| 20260831061535 | 84 | 151 | 23.0 | 31.0 | 0.00 | 0.00 | 0.00 | 46 | 999.2 |
| 20260831060044 | 84 | 155 | 24.0 | 29.0 | 0.00 | 0.00 | 0.00 | 46 | 999.2 |
| 20260831054535 | 85 | 146 | 24.0 | 33.0 | 0.00 | 0.00 | 0.00 | 45 | 999.1 |
| 20260831053035 | 85 | 153 | 24.0 | 35.0 | 0.00 | 0.00 | 0.00 | 45 | 999.1 |
| 20260831051548 | 86 | 144 | 30.0 | 38.0 | 0.00 | 0.00 | 0.00 | 44 | 999.1 |
| 20260831050036 | 86 | 144 | 29.0 | 43.0 | 0.00 | 0.00 | 0.00 | 43 | 999.1 |
| 20260831044535 | 87 | 146 | 29.0 | 39.0 | 0.00 | 0.00 | 0.00 | 41 | 999.1 |
| 20260831043031 | 87 | 147 | 26.0 | 34.0 | 0.00 | 0.00 | 0.00 | 38 | 999.0 |
| 20260831041535 | 88 | 144 | 24.0 | 34.0 | 0.00 | 0.00 | 0.00 | 37 | 999.0 |
| 20260831040042 | 89 | 139 | 23.0 | 36.0 | 0.00 | 0.00 | 0.00 | 35 | 998.8 |
| 20260831034530 | 89 | 146 | 26.0 | 36.0 | 0.00 | 0.00 | 0.00 | 35 | 998.6 |
| 20260831033032 | 90 | 137 | 26.0 | 34.0 | 0.00 | 0.00 | 0.00 | 34 | 998.5 |
| 20260831031527 | 91 | 128 | 25.0 | 33.0 | 0.00 | 0.00 | 0.00 | 33 | 998.2 |
| 20260831030029 | 91 | 140 | 25.0 | 31.0 | 0.00 | 0.00 | 0.00 | 33 | 998.0 |
| 20260831024527 | 92 | 134 | 23.0 | 29.0 | 0.00 | 0.00 | 0.00 | 33 | 997.7 |
| 20260831023036 | 93 | 128 | 21.0 | 26.0 | 0.00 | 0.00 | 0.00 | 33 | 997.6 |
| 20260831021546 | 93 | 137 | 22.0 | 29.0 | 0.00 | 0.00 | 0.00 | 32 | 997.3 |
| 20260831020028 | 94 | 126 | 16.0 | 22.0 | 0.00 | 0.00 | 0.00 | 27 | 997.2 |
| 20260831014527 | 95 | 142 | 11.0 | 16.0 | 0.00 | 0.00 | 0.00 | 24 | 997.0 |
| 20260831013025 | 95 | 130 | 14.0 | 20.0 | 0.00 | 0.00 | 0.00 | 24 | 996.9 |
| 20260831011531 | 96 | 137 | 12.0 | 19.0 | 0.00 | 0.00 | 0.00 | 23 | 996.9 |
| 20260831010044 | 96 | 132 | 12.0 | 19.0 | 0.00 | 0.00 | 0.00 | 23 | 996.7 |